Time,TemperatureF,DewpointF,PressureIn,WindDirection,WindDirectionDegrees,WindSpeedMPH,WindSpeedGustMPH,Humidity,HourlyPrecipIn,Conditions,Clouds,dailyrainin,SoftwareType,DateUTC
2013-01-01 00:03:00,44.0,37.6,30.20,SW,225,0.0,3.0,78,0.00,,,0.00,Weather View 32 v70,2013-01-01 08:03:00,
2013-01-01 00:08:00,44.0,38.9,30.20,SW,225,0.0,4.0,82,0.00,,,0.00,Weather View 32 v70,2013-01-01 08:08:00,
2013-01-01 00:13:00,44.0,37.9,30.20,SW,225,0.0,4.0,79,0.00,,,0.00,Weather View 32 v70,2013-01-01 08:13:00,
2013-01-01 00:18:00,44.0,37.6,30.19,SW,225,0.0,4.0,78,0.00,,,0.00,Weather View 32 v70,2013-01-01 08:18:00,
2013-01-01 00:23:00,44.0,37.6,30.19,SW,225,0.0,4.0,78,0.00,,,0.00,Weather View 32 v70,2013-01-01 08:23:00,
2013-01-01 00:28:00,43.0,36.9,30.19,SW,225,0.0,4.0,79,0.00,,,0.00,Weather View 32 v70,2013-01-01 08:28:00,
2013-01-01 00:33:00,43.0,37.2,30.19,SW,225,0.0,4.0,80,0.00,,,0.00,Weather View 32 v70,2013-01-01 08:33:00,
2013-01-01 00:38:00,43.0,37.2,30.19,SW,225,0.0,4.0,80,0.00,,,0.00,Weather View 32 v70,2013-01-01 08:38:00,
2013-01-01 00:43:00,44.0,39.2,30.19,WSW,247,0.0,4.0,83,0.00,,,0.00,Weather View 32 v70,2013-01-01 08:43:00,
2013-01-01 00:48:00,44.0,37.9,30.19,WSW,247,0.0,4.0,79,0.00,,,0.00,Weather View 32 v70,2013-01-01 08:48:00,
2013-01-01 00:53:00,44.0,37.6,30.20,WSW,247,0.0,4.0,78,0.00,,,0.00,Weather View 32 v70,2013-01-01 08:53:00,
2013-01-01 00:55:00,44.0,37.6,30.20,WSW,247,0.0,4.0,78,0.00,,,0.00,Weather View 32 v70,2013-01-01 08:55:00,
2013-01-01 00:58:00,43.0,36.6,30.20,WSW,247,0.0,4.0,78,0.00,,,0.00,Weather View 32 v70,2013-01-01 08:58:00,
2013-01-01 01:03:00,43.0,36.6,30.20,WSW,247,0.0,4.0,78,0.00,,,0.00,Weather View 32 v70,2013-01-01 09:03:00,
2013-01-01 01:08:00,43.0,36.9,30.20,WSW,247,0.0,1.0,79,0.00,,,0.00,Weather View 32 v70,2013-01-01 09:08:00,
2013-01-01 01:13:00,43.0,37.2,30.20,WSW,247,0.0,0.0,80,0.00,,,0.00,Weather View 32 v70,2013-01-01 09:13:00,
2013-01-01 01:18:00,43.0,38.2,30.20,North,360,0.0,0.0,83,0.00,,,0.00,Weather View 32 v70,2013-01-01 09:18:00,
2013-01-01 01:23:00,44.0,38.2,30.20,North,360,0.0,0.0,80,0.00,,,0.00,Weather View 32 v70,2013-01-01 09:23:00,
2013-01-01 01:28:00,44.0,37.9,30.19,North,360,0.0,0.0,79,0.00,,,0.00,Weather View 32 v70,2013-01-01 09:28:00,
2013-01-01 01:33:00,44.0,37.9,30.20,NNW,337,0.0,3.0,79,0.00,,,0.00,Weather View 32 v70,2013-01-01 09:33:00,
2013-01-01 01:38:00,44.0,37.9,30.20,NNW,337,0.0,3.0,79,0.00,,,0.00,Weather View 32 v70,2013-01-01 09:38:00,
2013-01-01 01:43:00,44.0,37.9,30.20,NNW,337,0.0,3.0,79,0.00,,,0.00,Weather View 32 v70,2013-01-01 09:43:00,
2013-01-01 01:48:00,44.0,37.9,30.20,SW,225,0.0,3.0,79,0.00,,,0.00,Weather View 32 v70,2013-01-01 09:48:00,
2013-01-01 01:53:00,44.0,38.9,30.19,SW,225,0.0,3.0,82,0.00,,,0.00,Weather View 32 v70,2013-01-01 09:53:00,
2013-01-01 01:56:00,44.0,38.9,30.19,SW,225,0.0,3.0,82,0.00,,,0.00,Weather View 32 v70,2013-01-01 09:56:00,
2013-01-01 02:03:00,43.0,37.2,30.19,SW,225,0.0,3.0,80,0.00,,,0.00,Weather View 32 v70,2013-01-01 10:03:00,
2013-01-01 02:08:00,43.0,37.2,30.19,SW,225,0.0,3.0,80,0.00,,,0.00,Weather View 32 v70,2013-01-01 10:08:00,
2013-01-01 02:13:00,42.0,36.3,30.19,SW,225,0.0,3.0,80,0.00,,,0.00,Weather View 32 v70,2013-01-01 10:13:00,
2013-01-01 02:18:00,42.0,36.3,30.20,SW,225,0.0,3.0,80,0.00,,,0.00,Weather View 32 v70,2013-01-01 10:18:00,
2013-01-01 02:23:00,42.0,36.3,30.20,SW,225,0.0,3.0,80,0.00,,,0.00,Weather View 32 v70,2013-01-01 10:23:00,
2013-01-01 02:28:00,42.0,37.2,30.20,SW,225,0.0,3.0,83,0.00,,,0.00,Weather View 32 v70,2013-01-01 10:28:00,
2013-01-01 02:33:00,42.0,36.3,30.20,SW,225,0.0,0.0,80,0.00,,,0.00,Weather View 32 v70,2013-01-01 10:33:00,
2013-01-01 02:38:00,42.0,36.3,30.20,SW,225,0.0,0.0,80,0.00,,,0.00,Weather View 32 v70,2013-01-01 10:38:00,
2013-01-01 02:43:00,43.0,37.2,30.20,SW,225,0.0,0.0,80,0.00,,,0.00,Weather View 32 v70,2013-01-01 10:43:00,
2013-01-01 02:48:00,43.0,37.2,30.20,SW,225,0.0,0.0,80,0.00,,,0.00,Weather View 32 v70,2013-01-01 10:48:00,
2013-01-01 02:53:00,43.0,37.2,30.20,SW,225,0.0,0.0,80,0.00,,,0.00,Weather View 32 v70,2013-01-01 10:53:00,
2013-01-01 02:57:00,43.0,37.2,30.20,SW,225,0.0,0.0,80,0.00,,,0.00,Weather View 32 v70,2013-01-01 10:57:00,
2013-01-01 03:03:00,44.0,39.2,30.19,SW,225,0.0,0.0,83,0.00,,,0.00,Weather View 32 v70,2013-01-01 11:03:00,
2013-01-01 03:08:00,44.0,37.9,30.19,SW,225,0.0,0.0,79,0.00,,,0.00,Weather View 32 v70,2013-01-01 11:08:00,
2013-01-01 03:13:00,44.0,37.9,30.19,SW,225,0.0,0.0,79,0.00,,,0.00,Weather View 32 v70,2013-01-01 11:13:00,
2013-01-01 03:18:00,43.0,36.9,30.20,SW,225,0.0,0.0,79,0.00,,,0.00,Weather View 32 v70,2013-01-01 11:18:00,
2013-01-01 03:23:00,43.0,36.9,30.20,SW,225,0.0,0.0,79,0.00,,,0.00,Weather View 32 v70,2013-01-01 11:23:00,
2013-01-01 03:28:00,43.0,37.2,30.20,SW,225,0.0,0.0,80,0.00,,,0.00,Weather View 32 v70,2013-01-01 11:28:00,
2013-01-01 03:33:00,43.0,37.2,30.20,North,360,0.0,0.0,80,0.00,,,0.00,Weather View 32 v70,2013-01-01 11:33:00,
2013-01-01 03:38:00,43.0,38.2,30.21,East,90,0.0,0.0,83,0.00,,,0.00,Weather View 32 v70,2013-01-01 11:38:00,
2013-01-01 03:43:00,44.0,38.2,30.21,East,90,0.0,3.0,80,0.00,,,0.00,Weather View 32 v70,2013-01-01 11:43:00,
2013-01-01 03:48:00,44.0,37.9,30.21,North,360,0.0,3.0,79,0.00,,,0.00,Weather View 32 v70,2013-01-01 11:48:00,
2013-01-01 03:53:00,44.0,37.9,30.21,North,360,0.0,3.0,79,0.00,,,0.00,Weather View 32 v70,2013-01-01 11:53:00,
2013-01-01 03:57:00,44.0,37.9,30.21,North,360,0.0,3.0,79,0.00,,,0.00,Weather View 32 v70,2013-01-01 11:57:00,
2013-01-01 03:58:00,44.0,37.9,30.21,North,360,0.0,3.0,79,0.00,,,0.00,Weather View 32 v70,2013-01-01 11:58:00,
2013-01-01 04:03:00,44.0,37.9,30.21,North,360,0.0,3.0,79,0.00,,,0.00,Weather View 32 v70,2013-01-01 12:03:00,
2013-01-01 04:13:00,44.0,38.9,30.21,North,360,0.0,3.0,82,0.00,,,0.00,Weather View 32 v70,2013-01-01 12:13:00,
2013-01-01 04:18:00,44.0,37.9,30.21,North,360,0.0,3.0,79,0.00,,,0.00,Weather View 32 v70,2013-01-01 12:18:00,
2013-01-01 04:23:00,44.0,37.9,30.21,North,360,0.0,3.0,79,0.00,,,0.00,Weather View 32 v70,2013-01-01 12:23:00,
2013-01-01 04:28:00,44.0,37.9,30.20,North,360,0.0,3.0,79,0.00,,,0.00,Weather View 32 v70,2013-01-01 12:28:00,
2013-01-01 04:33:00,44.0,37.6,30.20,East,90,0.0,4.0,78,0.00,,,0.00,Weather View 32 v70,2013-01-01 12:33:00,
2013-01-01 04:38:00,44.0,37.6,30.20,North,360,2.0,4.0,78,0.00,,,0.00,Weather View 32 v70,2013-01-01 12:38:00,
2013-01-01 04:43:00,44.0,37.6,30.20,North,360,0.0,4.0,78,0.00,,,0.00,Weather View 32 v70,2013-01-01 12:43:00,
2013-01-01 04:48:00,44.0,38.5,30.20,North,360,0.0,4.0,81,0.00,,,0.00,Weather View 32 v70,2013-01-01 12:48:00,
2013-01-01 04:53:00,44.0,37.6,30.20,North,360,0.0,4.0,78,0.00,,,0.00,Weather View 32 v70,2013-01-01 12:53:00,
2013-01-01 04:58:00,44.0,37.6,30.20,North,360,0.0,4.0,78,0.00,,,0.00,Weather View 32 v70,2013-01-01 12:58:00,
2013-01-01 05:03:00,44.0,37.6,30.20,North,360,0.0,4.0,78,0.00,,,0.00,Weather View 32 v70,2013-01-01 13:03:00,
2013-01-01 05:13:00,44.0,37.6,30.20,North,360,0.0,4.0,78,0.00,,,0.00,Weather View 32 v70,2013-01-01 13:13:00,
2013-01-01 05:18:00,44.0,37.6,30.20,East,90,0.0,4.0,78,0.00,,,0.00,Weather View 32 v70,2013-01-01 13:18:00,
2013-01-01 05:23:00,44.0,38.5,30.20,East,90,0.0,4.0,81,0.00,,,0.00,Weather View 32 v70,2013-01-01 13:23:00,
2013-01-01 05:28:00,43.0,36.6,30.20,North,360,0.0,4.0,78,0.00,,,0.00,Weather View 32 v70,2013-01-01 13:28:00,
2013-01-01 05:33:00,43.0,36.9,30.20,East,90,0.0,4.0,79,0.00,,,0.00,Weather View 32 v70,2013-01-01 13:33:00,
2013-01-01 05:38:00,43.0,36.9,30.21,North,360,0.0,4.0,79,0.00,,,0.00,Weather View 32 v70,2013-01-01 13:38:00,
2013-01-01 05:43:00,43.0,36.9,30.21,North,360,0.0,4.0,79,0.00,,,0.00,Weather View 32 v70,2013-01-01 13:43:00,
2013-01-01 05:48:00,43.0,36.9,30.21,WNW,292,0.0,4.0,79,0.00,,,0.00,Weather View 32 v70,2013-01-01 13:48:00,
2013-01-01 05:53:00,43.0,36.9,30.21,WNW,292,0.0,4.0,79,0.00,,,0.00,Weather View 32 v70,2013-01-01 13:53:00,
2013-01-01 05:58:00,43.0,38.2,30.21,WNW,292,0.0,3.0,83,0.00,,,0.00,Weather View 32 v70,2013-01-01 13:58:00,
2013-01-01 06:03:00,43.0,36.9,30.21,North,360,0.0,3.0,79,0.00,,,0.00,Weather View 32 v70,2013-01-01 14:03:00,
2013-01-01 06:08:00,43.0,37.2,30.21,East,90,0.0,3.0,80,0.00,,,0.00,Weather View 32 v70,2013-01-01 14:08:00,
2013-01-01 06:13:00,43.0,37.2,30.21,East,90,0.0,4.0,80,0.00,,,0.00,Weather View 32 v70,2013-01-01 14:13:00,
2013-01-01 06:18:00,43.0,37.2,30.21,East,90,0.0,4.0,80,0.00,,,0.00,Weather View 32 v70,2013-01-01 14:18:00,
2013-01-01 06:23:00,43.0,36.9,30.21,ESE,112,0.0,4.0,79,0.00,,,0.00,Weather View 32 v70,2013-01-01 14:23:00,
2013-01-01 06:28:00,43.0,36.9,30.21,ESE,112,0.0,4.0,79,0.00,,,0.00,Weather View 32 v70,2013-01-01 14:28:00,
2013-01-01 06:33:00,43.0,37.9,30.21,North,360,0.0,5.0,82,0.00,,,0.00,Weather View 32 v70,2013-01-01 14:33:00,
2013-01-01 06:38:00,42.0,36.0,30.21,SE,135,0.0,5.0,79,0.00,,,0.00,Weather View 32 v70,2013-01-01 14:38:00,
2013-01-01 06:43:00,43.0,36.9,30.21,East,90,0.0,5.0,79,0.00,,,0.00,Weather View 32 v70,2013-01-01 14:43:00,
2013-01-01 06:48:00,43.0,36.9,30.21,East,90,0.0,5.0,79,0.00,,,0.00,Weather View 32 v70,2013-01-01 14:48:00,
2013-01-01 06:53:00,42.0,36.0,30.21,North,360,4.0,5.0,79,0.00,,,0.00,Weather View 32 v70,2013-01-01 14:53:00,
2013-01-01 06:59:00,42.0,35.6,30.21,North,360,2.0,5.0,78,0.00,,,0.00,Weather View 32 v70,2013-01-01 14:59:00,
2013-01-01 07:03:00,42.0,35.3,30.21,East,90,0.0,5.0,77,0.00,,,0.00,Weather View 32 v70,2013-01-01 15:03:00,
2013-01-01 07:08:00,42.0,34.0,30.22,ESE,112,0.0,5.0,73,0.00,,,0.00,Weather View 32 v70,2013-01-01 15:08:00,
2013-01-01 07:13:00,42.0,30.7,30.22,East,90,1.0,5.0,64,0.00,,,0.00,Weather View 32 v70,2013-01-01 15:13:00,
2013-01-01 07:18:00,42.0,30.3,30.22,East,90,0.0,5.0,63,0.00,,,0.00,Weather View 32 v70,2013-01-01 15:18:00,
2013-01-01 07:23:00,42.0,30.3,30.22,East,90,0.0,5.0,63,0.00,,,0.00,Weather View 32 v70,2013-01-01 15:23:00,
2013-01-01 07:28:00,42.0,30.3,30.22,North,360,0.0,5.0,63,0.00,,,0.00,Weather View 32 v70,2013-01-01 15:28:00,
2013-01-01 07:33:00,42.0,29.9,30.21,East,90,0.0,5.0,62,0.00,,,0.00,Weather View 32 v70,2013-01-01 15:33:00,
2013-01-01 07:38:00,42.0,28.7,30.21,ESE,112,0.0,5.0,59,0.00,,,0.00,Weather View 32 v70,2013-01-01 15:38:00,
2013-01-01 07:43:00,42.0,-52.1,30.21,North,360,0.0,6.0,1,0.00,,,0.00,Weather View 32 v70,2013-01-01 15:43:00,
2013-01-01 07:48:00,42.0,27.9,30.21,North,360,2.0,8.0,57,0.00,,,0.00,Weather View 32 v70,2013-01-01 15:48:00,
2013-01-01 07:53:00,42.0,27.9,30.21,North,360,3.0,8.0,57,0.00,,,0.00,Weather View 32 v70,2013-01-01 15:53:00,
2013-01-01 07:58:00,42.0,29.1,30.22,NNW,337,1.0,9.0,60,0.00,,,0.00,Weather View 32 v70,2013-01-01 15:58:00,
2013-01-01 07:59:00,42.0,29.1,30.22,NNW,337,1.0,9.0,60,0.00,,,0.00,Weather View 32 v70,2013-01-01 15:59:00,
2013-01-01 08:08:00,42.0,29.1,30.22,East,90,1.0,13.0,60,0.00,,,0.00,Weather View 32 v70,2013-01-01 16:08:00,
2013-01-01 08:13:00,42.0,28.7,30.22,NW,315,1.0,13.0,59,0.00,,,0.00,Weather View 32 v70,2013-01-01 16:13:00,
2013-01-01 08:18:00,43.0,-51.5,30.21,North,360,2.0,13.0,1,0.00,,,0.00,Weather View 32 v70,2013-01-01 16:18:00,
2013-01-01 08:23:00,43.0,27.5,30.21,North,360,2.0,13.0,54,0.00,,,0.00,Weather View 32 v70,2013-01-01 16:23:00,
2013-01-01 08:28:00,44.0,27.9,30.21,East,90,4.0,13.0,53,0.00,,,0.00,Weather View 32 v70,2013-01-01 16:28:00,
2013-01-01 08:33:00,44.0,27.9,30.21,North,360,7.0,13.0,53,0.00,,,0.00,Weather View 32 v70,2013-01-01 16:33:00,
2013-01-01 08:38:00,44.0,27.9,30.21,North,360,6.0,13.0,53,0.00,,,0.00,Weather View 32 v70,2013-01-01 16:38:00,
2013-01-01 08:43:00,45.0,28.4,30.22,North,360,0.0,13.0,52,0.00,,,0.00,Weather View 32 v70,2013-01-01 16:43:00,
2013-01-01 08:48:00,45.0,27.9,30.21,East,90,2.0,13.0,51,0.00,,,0.00,Weather View 32 v70,2013-01-01 16:48:00,
2013-01-01 08:53:00,45.0,-50.3,30.21,North,360,3.0,13.0,1,0.00,,,0.00,Weather View 32 v70,2013-01-01 16:53:00,
2013-01-01 08:58:00,45.0,27.9,30.21,North,360,0.0,13.0,51,0.00,,,0.00,Weather View 32 v70,2013-01-01 16:58:00,
2013-01-01 09:03:00,46.0,28.4,30.21,East,90,3.0,10.0,50,0.00,,,0.00,Weather View 32 v70,2013-01-01 17:03:00,
2013-01-01 09:08:00,46.0,28.4,30.22,East,90,0.0,10.0,50,0.00,,,0.00,Weather View 32 v70,2013-01-01 17:08:00,
2013-01-01 09:13:00,46.0,28.4,30.22,SW,225,0.0,10.0,50,0.00,,,0.00,Weather View 32 v70,2013-01-01 17:13:00,
2013-01-01 09:18:00,47.0,29.3,30.22,East,90,0.0,10.0,50,0.00,,,0.00,Weather View 32 v70,2013-01-01 17:18:00,
2013-01-01 09:23:00,47.0,28.8,30.21,SE,135,3.0,10.0,49,0.00,,,0.00,Weather View 32 v70,2013-01-01 17:23:00,
2013-01-01 09:28:00,48.0,-48.4,30.21,East,90,3.0,10.0,1,0.00,,,0.00,Weather View 32 v70,2013-01-01 17:28:00,
2013-01-01 09:33:00,47.0,28.8,30.21,SW,225,1.0,9.0,49,0.00,,,0.00,Weather View 32 v70,2013-01-01 17:33:00,
2013-01-01 09:38:00,48.0,29.7,30.21,North,360,7.0,9.0,49,0.00,,,0.00,Weather View 32 v70,2013-01-01 17:38:00,
2013-01-01 09:43:00,48.0,29.7,30.21,East,90,0.0,9.0,49,0.00,,,0.00,Weather View 32 v70,2013-01-01 17:43:00,
2013-01-01 09:48:00,48.0,29.7,30.21,East,90,2.0,9.0,49,0.00,,,0.00,Weather View 32 v70,2013-01-01 17:48:00,
2013-01-01 09:53:00,48.0,29.7,30.21,North,360,0.0,9.0,49,0.00,,,0.00,Weather View 32 v70,2013-01-01 17:53:00,
2013-01-01 09:58:00,48.0,29.7,30.21,East,90,2.0,9.0,49,0.00,,,0.00,Weather View 32 v70,2013-01-01 17:58:00,
2013-01-01 10:03:00,49.0,-47.8,30.21,East,90,0.0,9.0,1,0.00,,,0.00,Weather View 32 v70,2013-01-01 18:03:00,
2013-01-01 10:08:00,49.0,30.6,30.21,ESE,112,5.0,9.0,49,0.00,,,0.00,Weather View 32 v70,2013-01-01 18:08:00,
2013-01-01 10:13:00,49.0,30.6,30.21,East,90,0.0,9.0,49,0.00,,,0.00,Weather View 32 v70,2013-01-01 18:13:00,
2013-01-01 10:18:00,50.0,31.6,30.21,ESE,112,6.0,9.0,49,0.00,,,0.00,Weather View 32 v70,2013-01-01 18:18:00,
2013-01-01 10:23:00,50.0,31.0,30.21,SE,135,0.0,9.0,48,0.00,,,0.00,Weather View 32 v70,2013-01-01 18:23:00,
2013-01-01 10:28:00,50.0,31.0,30.21,East,90,1.0,12.0,48,0.00,,,0.00,Weather View 32 v70,2013-01-01 18:28:00,
2013-01-01 10:33:00,49.0,30.1,30.21,WSW,247,0.0,12.0,48,0.00,,,0.00,Weather View 32 v70,2013-01-01 18:33:00,
2013-01-01 10:38:00,50.0,-47.2,30.20,East,90,0.0,12.0,1,0.00,,,0.00,Weather View 32 v70,2013-01-01 18:38:00,
2013-01-01 10:43:00,50.0,31.0,30.20,SE,135,2.0,12.0,48,0.00,,,0.00,Weather View 32 v70,2013-01-01 18:43:00,
2013-01-01 10:48:00,50.0,31.0,30.20,East,90,0.0,12.0,48,0.00,,,0.00,Weather View 32 v70,2013-01-01 18:48:00,
2013-01-01 10:53:00,51.0,30.9,30.19,SE,135,3.0,12.0,46,0.00,,,0.00,Weather View 32 v70,2013-01-01 18:53:00,
2013-01-01 10:58:00,51.0,30.9,30.19,East,90,2.0,12.0,46,0.00,,,0.00,Weather View 32 v70,2013-01-01 18:58:00,
2013-01-01 11:01:00,51.0,30.9,30.19,East,90,2.0,12.0,46,0.00,,,0.00,Weather View 32 v70,2013-01-01 19:01:00,
2013-01-01 11:03:00,51.0,30.9,30.20,East,90,0.0,12.0,46,0.00,,,0.00,Weather View 32 v70,2013-01-01 19:03:00,
2013-01-01 11:08:00,51.0,30.9,30.20,East,90,8.0,12.0,46,0.00,,,0.00,Weather View 32 v70,2013-01-01 19:08:00,
2013-01-01 11:13:00,51.0,-46.6,30.19,North,360,0.0,12.0,1,0.00,,,0.00,Weather View 32 v70,2013-01-01 19:13:00,
2013-01-01 11:18:00,50.0,29.5,30.19,North,360,6.0,12.0,45,0.00,,,0.00,Weather View 32 v70,2013-01-01 19:18:00,
2013-01-01 11:23:00,51.0,30.9,30.20,North,360,6.0,12.0,46,0.00,,,0.00,Weather View 32 v70,2013-01-01 19:23:00,
2013-01-01 11:28:00,51.0,30.4,30.19,SE,135,2.0,12.0,45,0.00,,,0.00,Weather View 32 v70,2013-01-01 19:28:00,
2013-01-01 11:33:00,51.0,30.4,30.19,East,90,0.0,12.0,45,0.00,,,0.00,Weather View 32 v70,2013-01-01 19:33:00,
2013-01-01 11:38:00,51.0,30.4,30.19,North,360,0.0,12.0,45,0.00,,,0.00,Weather View 32 v70,2013-01-01 19:38:00,
2013-01-01 11:43:00,51.0,30.4,30.19,NNW,337,6.0,12.0,45,0.00,,,0.00,Weather View 32 v70,2013-01-01 19:43:00,
2013-01-01 11:48:00,51.0,-46.6,30.18,North,360,6.0,12.0,1,0.00,,,0.00,Weather View 32 v70,2013-01-01 19:48:00,
2013-01-01 11:53:00,51.0,30.4,30.18,SW,225,0.0,12.0,45,0.00,,,0.00,Weather View 32 v70,2013-01-01 19:53:00,
2013-01-01 11:58:00,51.0,30.4,30.18,North,360,0.0,12.0,45,0.00,,,0.00,Weather View 32 v70,2013-01-01 19:58:00,
2013-01-01 12:03:00,52.0,31.3,30.18,East,90,1.0,12.0,45,0.00,,,0.00,Weather View 32 v70,2013-01-01 20:03:00,
2013-01-01 12:08:00,51.0,30.4,30.18,East,90,6.0,12.0,45,0.00,,,0.00,Weather View 32 v70,2013-01-01 20:08:00,
2013-01-01 12:13:00,51.0,30.4,30.18,North,360,1.0,12.0,45,0.00,,,0.00,Weather View 32 v70,2013-01-01 20:13:00,
2013-01-01 12:18:00,52.0,30.7,30.17,North,360,5.0,12.0,44,0.00,,,0.00,Weather View 32 v70,2013-01-01 20:18:00,
2013-01-01 12:23:00,52.0,-46.0,30.17,East,90,6.0,13.0,1,0.00,,,0.00,Weather View 32 v70,2013-01-01 20:23:00,
2013-01-01 12:28:00,51.0,29.8,30.17,SE,135,0.0,13.0,44,0.00,,,0.00,Weather View 32 v70,2013-01-01 20:28:00,
2013-01-01 12:33:00,52.0,30.7,30.17,East,90,6.0,13.0,44,0.00,,,0.00,Weather View 32 v70,2013-01-01 20:33:00,
2013-01-01 12:38:00,52.0,30.7,30.17,East,90,3.0,13.0,44,0.00,,,0.00,Weather View 32 v70,2013-01-01 20:38:00,
2013-01-01 12:43:00,51.0,29.2,30.17,East,90,6.0,13.0,43,0.00,,,0.00,Weather View 32 v70,2013-01-01 20:43:00,
2013-01-01 12:48:00,52.0,30.2,30.17,North,360,9.0,13.0,43,0.00,,,0.00,Weather View 32 v70,2013-01-01 20:48:00,
2013-01-01 12:53:00,52.0,30.2,30.17,North,360,6.0,13.0,43,0.00,,,0.00,Weather View 32 v70,2013-01-01 20:53:00,
2013-01-01 12:58:00,53.0,-45.3,30.16,East,90,1.0,13.0,1,0.00,,,0.00,Weather View 32 v70,2013-01-01 20:58:00,
2013-01-01 13:02:00,53.0,-45.3,30.16,East,90,1.0,13.0,1,0.00,,,0.00,Weather View 32 v70,2013-01-01 21:02:00,
2013-01-01 13:08:00,52.0,29.6,30.16,SE,135,1.0,13.0,42,0.00,,,0.00,Weather View 32 v70,2013-01-01 21:08:00,
2013-01-01 13:13:00,53.0,30.5,30.16,East,90,3.0,13.0,42,0.00,,,0.00,Weather View 32 v70,2013-01-01 21:13:00,
2013-01-01 13:18:00,53.0,30.5,30.16,East,90,4.0,13.0,42,0.00,,,0.00,Weather View 32 v70,2013-01-01 21:18:00,
2013-01-01 13:23:00,53.0,30.5,30.17,NW,315,0.0,13.0,42,0.00,,,0.00,Weather View 32 v70,2013-01-01 21:23:00,
2013-01-01 13:28:00,52.0,29.6,30.16,North,360,0.0,13.0,42,0.00,,,0.00,Weather View 32 v70,2013-01-01 21:28:00,
2013-01-01 13:33:00,53.0,-45.3,30.16,North,360,6.0,13.0,1,0.00,,,0.00,Weather View 32 v70,2013-01-01 21:33:00,
2013-01-01 13:38:00,54.0,31.4,30.16,East,90,2.0,13.0,42,0.00,,,0.00,Weather View 32 v70,2013-01-01 21:38:00,
2013-01-01 13:43:00,54.0,31.4,30.16,SE,135,4.0,13.0,42,0.00,,,0.00,Weather View 32 v70,2013-01-01 21:43:00,
2013-01-01 13:48:00,53.0,30.5,30.16,ESE,112,4.0,13.0,42,0.00,,,0.00,Weather View 32 v70,2013-01-01 21:48:00,
2013-01-01 13:53:00,54.0,31.4,30.16,WSW,247,0.0,13.0,42,0.00,,,0.00,Weather View 32 v70,2013-01-01 21:53:00,
2013-01-01 13:58:00,54.0,31.4,30.15,East,90,12.0,13.0,42,0.00,,,0.00,Weather View 32 v70,2013-01-01 21:58:00,
2013-01-01 14:03:00,54.0,31.4,30.15,East,90,12.0,13.0,42,0.00,,,0.00,Weather View 32 v70,2013-01-01 22:03:00,
2013-01-01 14:08:00,54.0,-44.7,30.16,East,90,6.0,13.0,1,0.00,,,0.00,Weather View 32 v70,2013-01-01 22:08:00,
2013-01-01 14:13:00,54.0,31.4,30.16,East,90,3.0,13.0,42,0.00,,,0.00,Weather View 32 v70,2013-01-01 22:13:00,
2013-01-01 14:18:00,54.0,30.8,30.16,East,90,3.0,13.0,41,0.00,,,0.00,Weather View 32 v70,2013-01-01 22:18:00,
2013-01-01 14:23:00,55.0,31.7,30.15,North,360,6.0,12.0,41,0.00,,,0.00,Weather View 32 v70,2013-01-01 22:23:00,
2013-01-01 14:28:00,54.0,30.8,30.15,North,360,4.0,12.0,41,0.00,,,0.00,Weather View 32 v70,2013-01-01 22:28:00,
2013-01-01 14:33:00,54.0,30.8,30.17,North,360,1.0,12.0,41,0.00,,,0.00,Weather View 32 v70,2013-01-01 22:33:00,
2013-01-01 14:38:00,55.0,31.1,30.15,East,90,6.0,12.0,40,0.00,,,0.00,Weather View 32 v70,2013-01-01 22:38:00,
2013-01-01 14:43:00,54.0,-44.7,30.16,North,360,1.0,12.0,1,0.00,,,0.00,Weather View 32 v70,2013-01-01 22:43:00,
2013-01-01 14:48:00,54.0,30.8,30.16,North,360,5.0,13.0,41,0.00,,,0.00,Weather View 32 v70,2013-01-01 22:48:00,
2013-01-01 14:53:00,55.0,31.7,30.16,SE,135,0.0,13.0,41,0.00,,,0.00,Weather View 32 v70,2013-01-01 22:53:00,
2013-01-01 14:58:00,55.0,31.1,30.15,East,90,3.0,13.0,40,0.00,,,0.00,Weather View 32 v70,2013-01-01 22:58:00,
2013-01-01 15:04:00,55.0,31.7,30.15,East,90,0.0,13.0,41,0.00,,,0.00,Weather View 32 v70,2013-01-01 23:04:00,
2013-01-01 15:08:00,55.0,31.7,30.15,East,90,0.0,13.0,41,0.00,,,0.00,Weather View 32 v70,2013-01-01 23:08:00,
2013-01-01 15:13:00,55.0,31.7,30.15,North,360,4.0,13.0,41,0.00,,,0.00,Weather View 32 v70,2013-01-01 23:13:00,
2013-01-01 15:18:00,55.0,-44.1,30.15,East,90,7.0,13.0,1,0.00,,,0.00,Weather View 32 v70,2013-01-01 23:18:00,
2013-01-01 15:23:00,54.0,30.8,30.15,East,90,9.0,13.0,41,0.00,,,0.00,Weather View 32 v70,2013-01-01 23:23:00,
2013-01-01 15:28:00,54.0,31.4,30.16,East,90,0.0,13.0,42,0.00,,,0.00,Weather View 32 v70,2013-01-01 23:28:00,
2013-01-01 15:33:00,54.0,31.4,30.16,WNW,292,0.0,13.0,42,0.00,,,0.00,Weather View 32 v70,2013-01-01 23:33:00,
2013-01-01 15:38:00,54.0,31.4,30.16,North,360,4.0,13.0,42,0.00,,,0.00,Weather View 32 v70,2013-01-01 23:38:00,
2013-01-01 15:43:00,54.0,31.4,30.17,SW,225,0.0,13.0,42,0.00,,,0.00,Weather View 32 v70,2013-01-01 23:43:00,
2013-01-01 15:48:00,54.0,31.4,30.16,East,90,0.0,13.0,42,0.00,,,0.00,Weather View 32 v70,2013-01-01 23:48:00,
2013-01-01 15:53:00,54.0,-44.7,30.16,North,360,7.0,13.0,1,0.00,,,0.00,Weather View 32 v70,2013-01-01 23:53:00,
2013-01-01 15:58:00,53.0,31.1,30.16,NNW,337,0.0,15.0,43,0.00,,,0.00,Weather View 32 v70,2013-01-01 23:58:00,
2013-01-01 16:03:00,53.0,31.6,30.17,SE,135,2.0,15.0,44,0.00,,,0.00,Weather View 32 v70,2013-01-02 00:03:00,
2013-01-01 16:08:00,53.0,32.2,30.17,East,90,9.0,15.0,45,0.00,,,0.00,Weather View 32 v70,2013-01-02 00:08:00,
2013-01-01 16:13:00,52.0,31.3,30.17,East,90,3.0,15.0,45,0.00,,,0.00,Weather View 32 v70,2013-01-02 00:13:00,
2013-01-01 16:18:00,52.0,31.3,30.17,North,360,0.0,15.0,45,0.00,,,0.00,Weather View 32 v70,2013-01-02 00:18:00,
2013-01-01 16:23:00,52.0,32.4,30.17,East,90,3.0,15.0,47,0.00,,,0.00,Weather View 32 v70,2013-01-02 00:23:00,
2013-01-01 16:28:00,52.0,19.0,30.17,East,90,2.0,15.0,27,0.00,,,0.00,Weather View 32 v70,2013-01-02 00:28:00,
2013-01-01 16:33:00,51.0,38.0,30.17,North,360,2.0,15.0,61,0.00,,,0.00,Weather View 32 v70,2013-01-02 00:33:00,
2013-01-01 16:38:00,51.0,38.0,30.17,East,90,2.0,15.0,61,0.00,,,0.00,Weather View 32 v70,2013-01-02 00:38:00,
2013-01-01 16:43:00,50.0,37.5,30.17,East,90,1.0,15.0,62,0.00,,,0.00,Weather View 32 v70,2013-01-02 00:43:00,
2013-01-01 16:48:00,50.0,37.5,30.17,NNW,337,0.0,15.0,62,0.00,,,0.00,Weather View 32 v70,2013-01-02 00:48:00,
2013-01-01 16:53:00,50.0,37.5,30.17,East,90,0.0,15.0,62,0.00,,,0.00,Weather View 32 v70,2013-01-02 00:53:00,
2013-01-01 16:58:00,50.0,37.5,30.17,North,360,0.0,13.0,62,0.00,,,0.00,Weather View 32 v70,2013-01-02 00:58:00,
2013-01-01 17:03:00,49.0,34.0,30.17,East,90,0.0,13.0,56,0.00,,,0.00,Weather View 32 v70,2013-01-02 01:03:00,
2013-01-01 17:05:00,49.0,34.0,30.17,East,90,0.0,13.0,56,0.00,,,0.00,Weather View 32 v70,2013-01-02 01:05:00,
2013-01-01 17:13:00,49.0,37.7,30.17,East,90,0.0,13.0,65,0.00,,,0.00,Weather View 32 v70,2013-01-02 01:13:00,
2013-01-01 17:18:00,49.0,37.7,30.17,North,360,0.0,10.0,65,0.00,,,0.00,Weather View 32 v70,2013-01-02 01:18:00,
2013-01-01 17:23:00,48.0,37.2,30.17,East,90,3.0,10.0,66,0.00,,,0.00,Weather View 32 v70,2013-01-02 01:23:00,
2013-01-01 17:28:00,48.0,37.5,30.17,East,90,0.0,10.0,67,0.00,,,0.00,Weather View 32 v70,2013-01-02 01:28:00,
2013-01-01 17:33:00,48.0,37.9,30.17,ESE,112,0.0,10.0,68,0.00,,,0.00,Weather View 32 v70,2013-01-02 01:33:00,
2013-01-01 17:38:00,48.0,37.9,30.17,East,90,0.0,9.0,68,0.00,,,0.00,Weather View 32 v70,2013-01-02 01:38:00,
2013-01-01 17:43:00,48.0,39.0,30.17,ESE,112,0.0,9.0,71,0.00,,,0.00,Weather View 32 v70,2013-01-02 01:43:00,
2013-01-01 17:48:00,47.0,38.1,30.17,East,90,0.0,9.0,71,0.00,,,0.00,Weather View 32 v70,2013-01-02 01:48:00,
2013-01-01 17:53:00,47.0,38.4,30.17,ESE,112,0.0,9.0,72,0.00,,,0.00,Weather View 32 v70,2013-01-02 01:53:00,
2013-01-01 17:58:00,46.0,37.8,30.17,East,90,0.0,9.0,73,0.00,,,0.00,Weather View 32 v70,2013-01-02 01:58:00,
2013-01-01 18:03:00,46.0,38.2,30.17,East,90,0.0,9.0,74,0.00,,,0.00,Weather View 32 v70,2013-01-02 02:03:00,
2013-01-01 18:05:00,46.0,38.2,30.17,East,90,0.0,9.0,74,0.00,,,0.00,Weather View 32 v70,2013-01-02 02:05:00,
2013-01-01 18:08:00,46.0,38.8,30.18,East,90,0.0,9.0,76,0.00,,,0.00,Weather View 32 v70,2013-01-02 02:08:00,
2013-01-01 18:13:00,45.0,37.9,30.18,East,90,0.0,6.0,76,0.00,,,0.00,Weather View 32 v70,2013-01-02 02:13:00,
2013-01-01 18:18:00,45.0,38.2,30.18,East,90,0.0,6.0,77,0.00,,,0.00,Weather View 32 v70,2013-01-02 02:18:00,
2013-01-01 18:23:00,45.0,38.5,30.18,East,90,0.0,6.0,78,0.00,,,0.00,Weather View 32 v70,2013-01-02 02:23:00,
2013-01-01 18:28:00,45.0,38.9,30.19,ESE,112,0.0,6.0,79,0.00,,,0.00,Weather View 32 v70,2013-01-02 02:28:00,
2013-01-01 18:33:00,45.0,38.9,30.19,ESE,112,0.0,3.0,79,0.00,,,0.00,Weather View 32 v70,2013-01-02 02:33:00,
2013-01-01 18:38:00,45.0,38.9,30.19,East,90,0.0,3.0,79,0.00,,,0.00,Weather View 32 v70,2013-01-02 02:38:00,
2013-01-01 18:43:00,45.0,38.9,30.19,East,90,0.0,2.0,79,0.00,,,0.00,Weather View 32 v70,2013-01-02 02:43:00,
2013-01-01 18:48:00,45.0,38.5,30.19,East,90,0.0,2.0,78,0.00,,,0.00,Weather View 32 v70,2013-01-02 02:48:00,
2013-01-01 18:53:00,44.0,37.9,30.19,East,90,0.0,2.0,79,0.00,,,0.00,Weather View 32 v70,2013-01-02 02:53:00,
2013-01-01 18:58:00,45.0,38.9,30.19,East,90,0.0,2.0,79,0.00,,,0.00,Weather View 32 v70,2013-01-02 02:58:00,
2013-01-01 19:03:00,45.0,38.9,30.19,East,90,0.0,2.0,79,0.00,,,0.00,Weather View 32 v70,2013-01-02 03:03:00,
2013-01-01 19:06:00,45.0,38.9,30.19,East,90,0.0,2.0,79,0.00,,,0.00,Weather View 32 v70,2013-01-02 03:06:00,
2013-01-01 19:08:00,45.0,38.9,30.19,East,90,0.0,2.0,79,0.00,,,0.00,Weather View 32 v70,2013-01-02 03:08:00,
2013-01-01 19:13:00,44.0,37.9,30.19,ESE,112,0.0,2.0,79,0.00,,,0.00,Weather View 32 v70,2013-01-02 03:13:00,
2013-01-01 19:18:00,45.0,38.9,30.19,East,90,0.0,2.0,79,0.00,,,0.00,Weather View 32 v70,2013-01-02 03:18:00,
2013-01-01 19:23:00,45.0,38.9,30.19,East,90,0.0,2.0,79,0.00,,,0.00,Weather View 32 v70,2013-01-02 03:23:00,
2013-01-01 19:28:00,45.0,38.5,30.19,ESE,112,0.0,4.0,78,0.00,,,0.00,Weather View 32 v70,2013-01-02 03:28:00,
2013-01-01 19:33:00,46.0,39.5,30.19,ESE,112,0.0,4.0,78,0.00,,,0.00,Weather View 32 v70,2013-01-02 03:33:00,
2013-01-01 19:38:00,46.0,39.5,30.19,ESE,112,0.0,4.0,78,0.00,,,0.00,Weather View 32 v70,2013-01-02 03:38:00,
2013-01-01 19:43:00,45.0,38.5,30.19,ESE,112,0.0,4.0,78,0.00,,,0.00,Weather View 32 v70,2013-01-02 03:43:00,
2013-01-01 19:48:00,45.0,38.5,30.19,East,90,0.0,4.0,78,0.00,,,0.00,Weather View 32 v70,2013-01-02 03:48:00,
2013-01-01 19:53:00,44.0,37.6,30.20,East,90,0.0,4.0,78,0.00,,,0.00,Weather View 32 v70,2013-01-02 03:53:00,
2013-01-01 19:58:00,44.0,37.9,30.21,East,90,0.0,4.0,79,0.00,,,0.00,Weather View 32 v70,2013-01-02 03:58:00,
2013-01-01 20:06:00,44.0,37.6,30.21,SW,225,0.0,4.0,78,0.00,,,0.00,Weather View 32 v70,2013-01-02 04:06:00,
2013-01-01 20:08:00,44.0,37.6,30.20,SW,225,0.0,4.0,78,0.00,,,0.00,Weather View 32 v70,2013-01-02 04:08:00,
2013-01-01 20:13:00,44.0,37.6,30.21,SW,225,0.0,4.0,78,0.00,,,0.00,Weather View 32 v70,2013-01-02 04:13:00,
2013-01-01 20:18:00,44.0,37.6,30.21,SW,225,0.0,4.0,78,0.00,,,0.00,Weather View 32 v70,2013-01-02 04:18:00,
2013-01-01 20:23:00,44.0,37.6,30.20,SW,225,0.0,4.0,78,0.00,,,0.00,Weather View 32 v70,2013-01-02 04:23:00,
2013-01-01 20:28:00,44.0,37.6,30.21,SE,135,0.0,4.0,78,0.00,,,0.00,Weather View 32 v70,2013-01-02 04:28:00,
2013-01-01 20:33:00,44.0,37.9,30.20,SE,135,0.0,4.0,79,0.00,,,0.00,Weather View 32 v70,2013-01-02 04:33:00,
2013-01-01 20:38:00,43.0,36.6,30.20,ESE,112,0.0,4.0,78,0.00,,,0.00,Weather View 32 v70,2013-01-02 04:38:00,
2013-01-01 20:43:00,43.0,36.9,30.21,ESE,112,0.0,4.0,79,0.00,,,0.00,Weather View 32 v70,2013-01-02 04:43:00,
2013-01-01 20:48:00,43.0,37.2,30.21,SE,135,2.0,4.0,80,0.00,,,0.00,Weather View 32 v70,2013-01-02 04:48:00,
2013-01-01 20:53:00,43.0,36.9,30.21,SE,135,0.0,4.0,79,0.00,,,0.00,Weather View 32 v70,2013-01-02 04:53:00,
2013-01-01 20:58:00,44.0,37.6,30.20,ESE,112,0.0,4.0,78,0.00,,,0.00,Weather View 32 v70,2013-01-02 04:58:00,
2013-01-01 21:03:00,44.0,37.6,30.20,SW,225,0.0,4.0,78,0.00,,,0.00,Weather View 32 v70,2013-01-02 05:03:00,
2013-01-01 21:08:00,44.0,37.9,30.20,SE,135,0.0,4.0,79,0.00,,,0.00,Weather View 32 v70,2013-01-02 05:08:00,
2013-01-01 21:13:00,44.0,37.6,30.20,SE,135,0.0,4.0,78,0.00,,,0.00,Weather View 32 v70,2013-01-02 05:13:00,
2013-01-01 21:18:00,43.0,36.6,30.20,SE,135,0.0,4.0,78,0.00,,,0.00,Weather View 32 v70,2013-01-02 05:18:00,
2013-01-01 21:23:00,43.0,37.2,30.20,SE,135,0.0,4.0,80,0.00,,,0.00,Weather View 32 v70,2013-01-02 05:23:00,
2013-01-01 21:28:00,43.0,36.9,30.20,SE,135,0.0,4.0,79,0.00,,,0.00,Weather View 32 v70,2013-01-02 05:28:00,
2013-01-01 21:33:00,43.0,36.9,30.20,ESE,112,0.0,4.0,79,0.00,,,0.00,Weather View 32 v70,2013-01-02 05:33:00,
2013-01-01 21:38:00,43.0,36.9,30.20,SW,225,0.0,4.0,79,0.00,,,0.00,Weather View 32 v70,2013-01-02 05:38:00,
2013-01-01 21:43:00,43.0,37.6,30.21,SW,225,0.0,4.0,81,0.00,,,0.00,Weather View 32 v70,2013-01-02 05:43:00,
2013-01-01 21:48:00,43.0,36.9,30.21,SW,225,0.0,4.0,79,0.00,,,0.00,Weather View 32 v70,2013-01-02 05:48:00,
2013-01-01 21:53:00,43.0,36.9,30.21,SE,135,0.0,4.0,79,0.00,,,0.00,Weather View 32 v70,2013-01-02 05:53:00,
2013-01-01 21:58:00,43.0,36.9,30.21,ESE,112,0.0,4.0,79,0.00,,,0.00,Weather View 32 v70,2013-01-02 05:58:00,
2013-01-01 22:03:00,43.0,36.9,30.21,ESE,112,0.0,4.0,79,0.00,,,0.00,Weather View 32 v70,2013-01-02 06:03:00,
2013-01-01 22:08:00,43.0,36.9,30.21,ESE,112,0.0,4.0,79,0.00,,,0.00,Weather View 32 v70,2013-01-02 06:08:00,
2013-01-01 22:13:00,43.0,36.9,30.21,SW,225,0.0,3.0,79,0.00,,,0.00,Weather View 32 v70,2013-01-02 06:13:00,
2013-01-01 22:18:00,43.0,37.9,30.21,SW,225,0.0,3.0,82,0.00,,,0.00,Weather View 32 v70,2013-01-02 06:18:00,
2013-01-01 22:23:00,43.0,36.9,30.21,SW,225,0.0,3.0,79,0.00,,,0.00,Weather View 32 v70,2013-01-02 06:23:00,
2013-01-01 22:28:00,43.0,36.9,30.21,SW,225,0.0,3.0,79,0.00,,,0.00,Weather View 32 v70,2013-01-02 06:28:00,
2013-01-01 22:33:00,42.0,36.0,30.21,SW,225,0.0,3.0,79,0.00,,,0.00,Weather View 32 v70,2013-01-02 06:33:00,
2013-01-01 22:38:00,43.0,36.9,30.21,ESE,112,0.0,2.0,79,0.00,,,0.00,Weather View 32 v70,2013-01-02 06:38:00,
2013-01-01 22:43:00,43.0,36.9,30.21,SE,135,0.0,2.0,79,0.00,,,0.00,Weather View 32 v70,2013-01-02 06:43:00,
2013-01-01 22:48:00,42.0,36.0,30.21,SE,135,0.0,2.0,79,0.00,,,0.00,Weather View 32 v70,2013-01-02 06:48:00,
2013-01-01 22:53:00,42.0,36.9,30.21,SE,135,0.0,2.0,82,0.00,,,0.00,Weather View 32 v70,2013-01-02 06:53:00,
2013-01-01 22:58:00,41.0,35.0,30.21,SE,135,0.0,2.0,79,0.00,,,0.00,Weather View 32 v70,2013-01-02 06:58:00,
2013-01-01 23:03:00,41.0,35.3,30.22,North,360,0.0,2.0,80,0.00,,,0.00,Weather View 32 v70,2013-01-02 07:03:00,
2013-01-01 23:08:00,41.0,35.3,30.22,North,360,0.0,2.0,80,0.00,,,0.00,Weather View 32 v70,2013-01-02 07:08:00,
2013-01-01 23:13:00,41.0,35.0,30.21,East,90,0.0,2.0,79,0.00,,,0.00,Weather View 32 v70,2013-01-02 07:13:00,
2013-01-01 23:18:00,41.0,35.0,30.22,East,90,0.0,2.0,79,0.00,,,0.00,Weather View 32 v70,2013-01-02 07:18:00,
2013-01-01 23:23:00,40.0,34.0,30.21,East,90,0.0,2.0,79,0.00,,,0.00,Weather View 32 v70,2013-01-02 07:23:00,
2013-01-01 23:33:00,40.0,34.6,30.22,SW,225,0.0,2.0,81,0.00,,,0.00,Weather View 32 v70,2013-01-02 07:33:00,
2013-01-01 23:38:00,41.0,35.3,30.21,SW,225,0.0,1.0,80,0.00,,,0.00,Weather View 32 v70,2013-01-02 07:38:00,
2013-01-01 23:43:00,41.0,35.3,30.21,SW,225,0.0,0.0,80,0.00,,,0.00,Weather View 32 v70,2013-01-02 07:43:00,
2013-01-01 23:53:00,41.0,35.3,30.21,SW,225,0.0,0.0,80,0.00,,,0.00,Weather View 32 v70,2013-01-02 07:53:00,
2013-01-01 23:58:00,41.0,35.3,30.21,SW,225,0.0,0.0,80,0.00,,,0.00,Weather View 32 v70,2013-01-02 07:58:00,